Norfolk, NE

1:43 AM CST on December 16, 2019 (GMT -0600)
Stefan Memorial

Weather History for KOFK - October, 2019

Change the Weather History Date:

Tuesday, October 29, 2019

  Actual Average Record
Temperature  
Mean Temperature 26 °F 46 °F  
Max Temperature 35 °F 57 °F 84 °F (1937)
Min Temperature 17 °F 34 °F 6 °F (1925)
Degree Days  
Heating Degree Days 39 19  
Month to date heating degree days 519 403  
Since 1 July heating degree days 549 545  
Cooling Degree Days 0 0  
Month to date cooling degree days 0 8  
Year to date cooling degree days 949 914  
Moisture  
Dew Point 20 °F    
Average Humidity 73    
Maximum Humidity 92    
Minimum Humidity 53    
Precipitation  
Precipitation 0.00 in 0.05 in 1.34 in (1896)
Month to date precipitation 1.93 1.98  
Year to date precipitation 23.96 25.20  
Snow  
Snow 0.00 in 0.10 in - ()
Month to date snowfall T 0.7  
Since 1 July snowfall T 0.7  
Since 1 September snowfall T 0.7  
Snow Depth 0.00 in    
Sea Level Pressure  
Sea Level Pressure 30.32 in    
Wind  
Wind Speed 9 mph (NNW)    
Max Wind Speed 18 mph    
Max Gust Speed 23 mph    
Visibility 10 miles    
Events      
T = Trace of Precipitation, MM = Missing Value Source: NWS Daily Summary

Daily Weather History Graph

Daily Weather History Graph

Search for Another Location

Airport or City:

Astronomy

Oct. 29, 2019 Rise Set
Actual Time 7:58 AM CDT 6:27 PM CDT
Civil Twilight 7:29 AM CDT 6:56 PM CDT
Nautical Twilight 6:56 AM CDT 7:29 PM CDT
Astronomical Twilight 6:24 AM CDT 8:01 PM CDT
Moon 9:34 AM CDT (10/29) 7:51 PM CDT (10/29)
Length of Visible Light 11h 26m
Length of Day
10h 29m
Waxing Crescent, 3% of the Moon is Illuminated
Oct 29
Waxing Crescent
Nov 4
First Quarter
Nov 12
Full
Nov 19
Last Quarter
Nov 26
New

Hourly Weather History & Observations

Time (CDT) Temp. Windchill Dew Point Humidity Pressure Visibility Wind Dir Wind Speed Gust Speed Precip Events Conditions
12:56 AM 21.9 °F - 19.0 °F 89% 30.18 in 10.0 mi Calm Calm - N/A   Clear
1:56 AM 21.9 °F 17.2 °F 19.9 °F 92% 30.21 in 10.0 mi SSW 3.5 mph - N/A   Clear
2:56 AM 19.9 °F - 18.0 °F 92% 30.22 in 10.0 mi Calm Calm - N/A   Clear
3:56 AM 19.9 °F 13.4 °F 18.0 °F 92% 30.22 in 10.0 mi SW 4.6 mph - N/A   Clear
4:56 AM 21.9 °F - 19.9 °F 92% 30.22 in 10.0 mi Calm Calm - N/A   Clear
5:56 AM 21.9 °F - 19.9 °F 92% 30.23 in 10.0 mi Calm Calm - N/A   Clear
6:56 AM 21.9 °F 17.2 °F 19.9 °F 92% 30.26 in 10.0 mi West 3.5 mph - N/A   Clear
7:56 AM 23.0 °F 17.0 °F 19.9 °F 88% 30.28 in 10.0 mi West 4.6 mph - N/A   Mostly Cloudy
8:56 AM 24.1 °F 18.2 °F 21.0 °F 88% 30.30 in 10.0 mi West 4.6 mph - N/A   Partly Cloudy
9:56 AM 26.1 °F 18.4 °F 21.9 °F 84% 30.32 in 10.0 mi NW 6.9 mph - N/A   Clear
10:56 AM 28.9 °F 19.8 °F 24.1 °F 82% 30.34 in 10.0 mi NNW 10.4 mph - N/A   Scattered Clouds
11:29 AM 30.9 °F 19.8 °F 24.1 °F 76% 30.29 in 10.0 mi NNW 16.1 mph - N/A   Mostly Cloudy
11:56 AM 32.0 °F 21.2 °F 24.1 °F 73% 30.35 in 10.0 mi North 16.1 mph - N/A   Mostly Cloudy
12:05 PM 33.1 °F 23.0 °F 24.1 °F 70% 30.29 in 10.0 mi North 15.0 mph - N/A   Mostly Cloudy
12:56 PM 34.0 °F 24.6 °F 23.0 °F 64% 30.35 in 10.0 mi NNW 13.8 mph - N/A   Mostly Cloudy
1:56 PM 34.0 °F 23.8 °F 21.9 °F 61% 30.35 in 10.0 mi North 16.1 mph - N/A   Mostly Cloudy
2:24 PM 34.0 °F 24.6 °F 21.9 °F 61% 30.28 in 10.0 mi North 13.8 mph - N/A   Mostly Cloudy
2:42 PM 33.1 °F 24.4 °F 21.0 °F 61% 30.28 in 10.0 mi North 11.5 mph - N/A   Overcast
2:56 PM 33.1 °F 23.4 °F 21.0 °F 61% 30.34 in 10.0 mi North 13.8 mph - N/A   Overcast
3:35 PM 33.1 °F 23.9 °F 21.0 °F 61% 30.29 in 10.0 mi NNW 12.7 mph - N/A   Overcast
3:56 PM 33.1 °F 23.0 °F 21.0 °F 61% 30.36 in 10.0 mi NNW 15.0 mph - N/A   Overcast
4:56 PM 32.0 °F 21.6 °F 19.9 °F 61% 30.37 in 10.0 mi North 15.0 mph - N/A   Mostly Cloudy
5:05 PM 32.0 °F 22.5 °F 19.9 °F 61% 30.31 in 10.0 mi North 12.7 mph - N/A   Scattered Clouds
5:56 PM 30.9 °F 21.2 °F 19.0 °F 61% 30.38 in 10.0 mi North 12.7 mph - N/A   Overcast
6:56 PM 30.9 °F 21.7 °F 18.0 °F 59% 30.39 in 10.0 mi North 11.5 mph - N/A   Overcast
7:56 PM 30.9 °F 23.5 °F 17.1 °F 57% 30.40 in 10.0 mi North 8.1 mph - N/A   Overcast
8:56 PM 30.0 °F 21.7 °F 16.0 °F 56% 30.41 in 10.0 mi NNW 9.2 mph - N/A   Overcast
9:56 PM 28.9 °F 18.6 °F 16.0 °F 58% 30.42 in 10.0 mi NNW 12.7 mph - N/A   Mostly Cloudy
10:56 PM 27.0 °F 17.3 °F 14.0 °F 58% 30.44 in 10.0 mi NNW 10.4 mph - N/A   Scattered Clouds
11:56 PM 26.1 °F 16.8 °F 14.0 °F 60% 30.45 in 10.0 mi NNW 9.2 mph - N/A   Overcast